Location: Edinburgh
(55.9500°N, 3.1600°W)
Time: 22:42:54
(UTC+01:00)

UKube-1 - Visible Passes

Search period start: 25 April 2018 00:00
Search period end: 05 May 2018 00:00
Orbit: 613 x 621 km, 98.4° (Epoch: 25 April)

Date Brightness Start Highest point End Pass type
(mag) Time Alt. Az. Time Alt. Az. Time Alt. Az.
25 Apr ? 01:30:48 10° ESE 01:34:10 24° ENE 01:37:39 10° N visible
25 Apr ? 03:07:54 30° S 03:09:52 61° WSW 03:14:10 10° NNW visible
26 Apr ? 01:47:18 13° ESE 01:50:28 31° ENE 01:54:17 10° N visible
26 Apr ? 03:24:24 26° SSW 03:26:23 44° W 03:30:32 10° NNW visible
27 Apr ? 02:03:49 16° SE 02:06:49 41° ENE 02:10:53 10° N visible
27 Apr ? 03:40:54 22° SW 03:42:56 32° W 03:46:50 10° NNW visible
28 Apr ? 00:46:21 10° ENE 00:48:03 12° NE 00:49:44 10° NNE visible
28 Apr ? 02:20:18 19° SE 02:23:12 55° ENE 02:27:25 10° N visible
28 Apr ? 03:57:25 17° SW 03:59:31 24° W 04:03:03 10° NW visible
29 Apr ? 01:01:46 10° E 01:04:16 15° NE 01:06:47 10° NNE visible
29 Apr ? 02:36:49 22° SSE 02:39:36 74° ENE 02:43:56 10° NNW visible
29 Apr ? 04:13:55 13° SW 04:16:07 18° W 04:19:07 10° NW visible
30 Apr ? 01:17:27 10° E 01:20:30 19° NE 01:23:35 10° N visible
30 Apr ? 02:53:20 22° SSE 02:56:03 81° WSW 03:00:23 10° NNW visible
30 Apr ? 04:30:39 10° WSW 04:32:47 13° W 04:34:54 10° WNW visible
01 May ? 01:33:19 10° ESE 01:36:47 25° ENE 01:40:17 10° N visible
01 May ? 03:09:50 22° S 03:12:31 59° WSW 03:16:48 10° NNW visible
02 May ? 01:49:18 10° ESE 01:53:07 31° ENE 01:56:56 10° N visible
02 May ? 03:26:20 20° SSW 03:29:02 43° W 03:33:10 10° NNW visible
03 May ? 02:05:44 12° SE 02:09:27 41° ENE 02:13:31 10° N visible
03 May ? 03:42:51 17° SSW 03:45:34 32° W 03:49:27 10° NNW visible
04 May ? 00:48:53 10° ENE 00:50:39 12° NE 00:52:25 10° NNE visible
04 May ? 02:22:15 14° SE 02:25:49 56° ENE 02:30:03 10° N visible
04 May ? 03:59:21 13° SW 04:02:09 24° W 04:05:39 10° NW visible
